This demonstration page uses our WeatherBlox Daily Observations layout. Learn more.

Left ArrowRight Arrow

44.89941, -97.11507

Hourly Observations for January 15, 2016

Temp ( °F °C ) Dew Point ( °F °C ) Humidity (%) Winds ( mph kmh ) Pressure ( in mb ) Visibility ( mi km ) Precip ( " mm )
12:00 am 00:00 Cloudy 14 -10 8 -13.3 77 77 N 22 35 29.74 1007 8 13 0.00 0.03
12:37 am 00:37 Cloudy with Haze 13 -10.6 7 -13.9 77 77 NNW 18 30 29.77 1008 6 10 0.00 0.03
12:53 am 00:53 Cloudy with Haze 12 -11.1 7 -13.9 80 80 N 20 31 29.68 1005 6 10 0.00 0.03
1:11 am 01:11 Cloudy with Haze 11 -11.7 6 -14.4 81 81 N 21 33 29.77 1008 5 8 0.00 0.00
1:42 am 01:42 Cloudy with Haze 11 -11.7 6 -14.4 81 81 NNW 16 26 29.77 1008 6 10 0.00 0.00
1:53 am 01:53 Cloudy with Haze 12 -11.1 6 -14.4 77 77 NNW 16 26 29.69 1005 4 6 0.00 0.00
2:53 am 02:53 Cloudy 11 -11.7 6 -14.4 81 81 NNW 18 30 29.72 1006 8 13 0.00 0.00
3:34 am 03:34 Cloudy with Haze 10 -12.2 5 -15 80 80 N 18 30 29.80 1009 5 8 0.00 0.00
3:53 am 03:53 Cloudy with Haze 10 -12.2 4 -15.6 76 76 N 18 30 29.75 1007 6 10 0.00 0.00
4:53 am 04:53 Cloudy 7 -13.9 1 -17.2 76 76 NNW 15 24 29.76 1008 10 16 0.00 0.00
5:02 am 05:02 Cloudy 7 -13.9 1 -17.2 76 76 NNW 14 22 29.85 1011 10 16 0.00 0.00
5:53 am 05:53 Cloudy 4 -15.6 -2 -18.9 76 76 NNW 10 17 29.80 1009 10 16 0.00 0.00
6:53 am 06:53 Mostly Cloudy 3 -16.1 -4 -20 72 72 NNW 10 17 29.82 1010 10 16 0.00 0.00
7:53 am 07:53 Cloudy 3 -16.1 -4 -20 72 72 NNW 9 15 29.84 1011 10 16 0.00 0.00
8:53 am 08:53 Partly Cloudy 2 -16.7 -6 -21.1 69 69 N 10 17 29.86 1011 10 16 0.00 0.00
9:53 am 09:53 Sunny 3 -16.1 -5 -20.6 69 69 N 14 22 29.89 1012 10 16 0.00 0.00
10:53 am 10:53 Sunny 5 -15 -4 -20 66 66 NNW 15 24 29.91 1013 10 16 0.00 0.00
11:53 am 11:53 Sunny 7 -13.9 -3 -19.4 63 63 N 14 22 29.90 1013 10 16 0.00 0.00
12:53 pm 12:53 Sunny 9 -12.8 -2 -18.9 61 61 NW 13 20 29.89 1012 10 16 0.00 0.00
1:53 pm 13:53 Mostly Cloudy 10 -12.2 -2 -18.9 58 58 NW 12 19 29.89 1012 10 16 0.00 0.00
2:53 pm 14:53 Cloudy 9 -12.8 0 -17.8 66 66 NNW 13 20 29.91 1013 10 16 0.00 0.00
3:53 pm 15:53 Cloudy 9 -12.8 0 -17.8 66 66 NNW 10 17 29.94 1014 10 16 0.00 0.00
4:53 pm 16:53 Cloudy 8 -13.3 -1 -18.3 66 66 N 13 20 29.96 1015 10 16 0.00 0.00
5:53 pm 17:53 Cloudy 8 -13.3 0 -17.8 69 69 NNW 10 17 29.98 1015 10 16 0.00 0.00
6:53 pm 18:53 Cloudy 8 -13.3 0 -17.8 69 69 NNW 12 19 30.00 1016 10 16 0.00 0.00
7:53 pm 19:53 Cloudy 7 -13.9 0 -17.8 73 73 N 10 17 30.01 1016 10 16 0.00 0.00
8:53 pm 20:53 Cloudy 7 -13.9 0 -17.8 73 73 N 7 11 30.02 1017 10 16 0.00 0.00
9:53 pm 21:53 Mostly Cloudy 4 -15.6 -3 -19.4 73 73 N 7 11 30.03 1017 10 16 0.00 0.00
10:53 pm 22:53 Mostly Cloudy 2 -16.7 -3 -19.4 80 80 N 7 11 30.04 1017 10 16 0.00 0.00
11:53 pm 23:53 Mostly Cloudy 2 -16.7 -4 -20 76 76 Calm 30.06 1018 10 16 0.00 0.00

Powered by AerisWeather